Location: Seattle
(47.6064°N, 122.3308°W)
Time: 01:58:55
(UTC-07:00)

STRAND 1 - Pass Details

Date: 06 April 2023
Orbit: 767 x 779 km, 98.4° (Epoch: 02 June)

Event Time Altitude Azimuth Distance (km) Brightness Sun altitude
Rises 22:01:20 0° 358° (N) 3,251 ? -21.4°
Reaches altitude 10° 22:05:08 10° 329° (NNW) 2,318 ? -21.9°
Maximum altitude 22:07:02 12° 307° (NW) 2,167 ? -22.2°
Drops below altitude 10° 22:08:57 10° 284° (WNW) 2,313 ? -22.4°
Sets 22:12:44 0° 255° (WSW) 3,234 ? -22.9°
